Notices

What's New in latest Release from April 7th, 2021:

- Updated Glossary, including Speed of Maximum Gust, and Total Hourly Precipitation

- Updated national and regional climate services offices contacts and prices information

- Addition of station inventory lists for 1981-2010, 1971-2000, and 1961-1990 Normals.

If you haven't already, please take our survey and provide feedback about our website: https://eccc.sondage-survey.ca/f/LanguageSelection.aspx?s=442ca660-fcf1-47c0-95a9-59707d6fd709

Hourly Data Report for December 16, 2004

SHERBROOKE A
QUEBEC

45°26'00.000" N
71°41'00.000" W
241.40 m
7028124
71610
YSC

Download Data

Hourly Data (December 2004)
Hourly Data Report for December 16, 2004
TIME
LST
Temp Definition
°C
Dew Point Definition
°C
Rel Hum Definition
%
Precip. Amount Definition
mm

Wind Dir Definition
10's deg

Wind Spd Definition
km/h
Visibility Definition
km
Stn Press Definition
kPa
Hmdx Definition


Wind Chill Definition


Weather Definition


00:00 -12.8 -14.5 87   6 4 15.0 99.56   -15  
01:00 -12.0 -13.6 88     0 15.0 99.46      
02:00 -11.4 -12.8 89     0 15.0 99.47      
03:00 -10.7 -12.4 87   36 4 15.0 99.43   -13  
04:00 -10.3 -12.1 87     0 15.0 99.41      
05:00 -10.0 -11.5 89     0 15.0 99.39      
06:00 -9.4 -11.1 87     0 15.0 99.37      
07:00 -7.3 -10.2 80   20 9 15.0 99.36   -12  
08:00 -7.2 -10.5 77   18 13 24.1 99.34   -13 Mostly Cloudy
09:00 -6.3 -9.9 76   19 9 24.1 99.30   -11 Mostly Cloudy
10:00 -5.1 -9.1 73   20 9 24.1 99.26   -9 Mainly Clear
11:00 -5.3 -9.1 75   23 11 24.1 99.14   -10 Mainly Clear
12:00 -3.7 -8.0 72   21 13 24.1 99.05   -9 Mostly Cloudy
13:00 -3.3 -7.5 73   19 9 24.1 98.96   -7 Mainly Clear
14:00 -3.3 -7.4 73   24 6 24.1 98.94   -6 Mainly Clear
15:00 -2.8 -7.0 73   21 4 24.1 98.88   -4 Mainly Clear
16:00 -5.0 -8.0 79     0 24.1 98.83     Mostly Cloudy
17:00 -5.1 -7.6 83   14 6 24.1 98.74   -8 Mostly Cloudy
18:00 -6.3 -7.8 89     0 15.0 98.64      
19:00 -6.6 -8.3 88   12 4 15.0 98.59   -9  
20:00 -6.2 -7.8 88   11 4 15.0 98.51   -8  
21:00 -5.8 -7.7 86   9 4 15.0 98.41   -8  
22:00 -6.1 -7.6 89     0 15.0 98.41      
23:00 -6.1 -7.5 90     0 15.0 98.31      

Notes on Data Quality.

Legend

  • E = Estimated
  • M = Missing
  • NA = Not Available*
  • [empty] = Indicates an unobserved value
Date modified: